TimeCST,TemperatureF,Dew PointF,Humidity,Sea Level PressureIn,VisibilityMPH,Wind Direction,Wind SpeedMPH,Gust SpeedMPH,PrecipitationIn,Events,Conditions,WindDirDegrees,DateUTC
12:52 AM,39.9,28.0,63,30.34,10.0,Calm,Calm,-,N/A,,Clear,0,2012-11-23 06:52:00
1:52 AM,41.0,27.0,57,30.35,10.0,Calm,Calm,-,N/A,,Clear,0,2012-11-23 07:52:00
2:52 AM,39.9,26.1,58,30.39,10.0,Variable,4.6,-,N/A,,Clear,0,2012-11-23 08:52:00
3:52 AM,37.9,24.1,57,30.42,10.0,NW,8.1,-,N/A,,Clear,320,2012-11-23 09:52:00
4:52 AM,36.0,17.1,46,30.46,10.0,NNW,10.4,23.0,N/A,,Clear,330,2012-11-23 10:52:00
5:52 AM,32.0,15.1,50,30.50,10.0,NNW,6.9,16.1,N/A,,Clear,340,2012-11-23 11:52:00
6:52 AM,28.9,14.0,54,30.53,10.0,NNW,5.8,-,N/A,,Clear,330,2012-11-23 12:52:00
7:52 AM,28.9,14.0,54,30.55,10.0,Variable,4.6,-,N/A,,Clear,0,2012-11-23 13:52:00
8:52 AM,30.0,14.0,51,30.58,10.0,NNW,13.8,18.4,N/A,,Clear,340,2012-11-23 14:52:00
9:52 AM,32.0,14.0,48,30.60,10.0,NNW,9.2,17.3,N/A,,Clear,340,2012-11-23 15:52:00
10:52 AM,34.0,14.0,44,30.60,10.0,NW,8.1,23.0,N/A,,Clear,320,2012-11-23 16:52:00
11:52 AM,37.0,14.0,39,30.57,10.0,NW,10.4,19.6,N/A,,Clear,320,2012-11-23 17:52:00
12:52 PM,39.9,15.1,36,30.54,10.0,WNW,9.2,-,N/A,,Clear,300,2012-11-23 18:52:00
1:52 PM,41.0,12.9,32,30.52,10.0,NNW,10.4,-,N/A,,Clear,330,2012-11-23 19:52:00
2:52 PM,42.1,10.9,28,30.51,10.0,NW,10.4,-,N/A,,Clear,320,2012-11-23 20:52:00
3:52 PM,41.0,12.0,31,30.51,10.0,NW,3.5,-,N/A,,Clear,310,2012-11-23 21:52:00
4:52 PM,37.9,12.9,36,30.51,10.0,NNW,3.5,-,N/A,,Clear,330,2012-11-23 22:52:00
5:52 PM,33.1,14.0,46,30.51,10.0,West,3.5,-,N/A,,Clear,280,2012-11-23 23:52:00
6:52 PM,33.1,14.0,46,30.51,10.0,Calm,Calm,-,N/A,,Clear,0,2012-11-24 00:52:00
7:52 PM,32.0,14.0,48,30.50,10.0,WNW,3.5,-,N/A,,Clear,290,2012-11-24 01:52:00
8:52 PM,25.0,16.0,69,30.50,10.0,Calm,Calm,-,N/A,,Clear,0,2012-11-24 02:52:00
9:52 PM,25.0,15.1,66,30.50,10.0,Calm,Calm,-,N/A,,Clear,0,2012-11-24 03:52:00
10:52 PM,23.0,15.1,72,30.48,10.0,SW,3.5,-,N/A,,Clear,220,2012-11-24 04:52:00
11:52 PM,24.1,16.0,71,30.46,10.0,Calm,Calm,-,N/A,,Clear,0,2012-11-24 05:52:00